Location: Detroit
(42.3310°N, 83.0460°W)
Time: 23:10:55
(UTC-05:00)

Tiros 1 - All Passes

Search period start: 29 January 2023 00:00
Search period end: 08 February 2023 00:00
Orbit: 628 x 662 km, 48.4° (Epoch: 29 January)

Date Brightness Start Highest point End Pass type
(mag) Time Alt. Az. Time Alt. Az. Time Alt. Az.
29 Jan - 01:43:24 10° SSW 01:47:10 25° SE 01:50:58 10° E night (unlit)
29 Jan - 03:24:19 10° WSW 03:28:58 81° NNW 03:33:40 10° ENE visible
29 Jan - 05:07:07 10° WNW 05:11:32 40° N 05:16:00 10° ENE visible
29 Jan - 06:49:46 10° WNW 06:54:20 48° NNE 06:58:57 10° E visible
29 Jan - 08:31:58 10° WNW 08:36:39 61° SSW 08:41:21 10° SE daylight
29 Jan - 10:15:57 10° WSW 10:18:06 13° SW 10:20:16 10° SSW daylight
30 Jan - 02:07:50 10° SW 02:12:19 51° SE 02:16:50 10° ENE night (unlit)
30 Jan - 03:49:58 10° W 03:54:30 52° NNW 03:59:07 10° ENE visible
30 Jan - 05:32:52 10° WNW 05:37:17 39° N 05:41:45 10° ENE visible
30 Jan - 07:15:13 10° WNW 07:19:55 72° NNE 07:24:41 10° ESE visible
30 Jan - 08:57:42 10° WNW 09:01:51 31° SW 09:06:01 10° SSE daylight
31 Jan - 00:52:20 10° S 00:55:55 23° SE 00:59:33 10° E night (unlit)
31 Jan - 02:33:01 10° WSW 02:37:39 86° NNW 02:42:21 10° ENE night (unlit)
31 Jan - 04:15:47 10° WNW 04:20:11 41° N 04:24:39 10° ENE visible
31 Jan - 05:58:28 10° WNW 06:03:00 47° NNE 06:07:34 10° E visible
31 Jan - 07:40:40 10° WNW 07:45:21 67° SSW 07:50:04 10° SE daylight
31 Jan - 09:24:18 10° W 09:26:52 14° SW 09:29:25 10° SSW daylight
01 Feb - 01:16:38 10° SW 01:21:02 46° SE 01:25:30 10° ENE night (unlit)
01 Feb - 02:58:38 10° W 03:03:11 55° NNW 03:07:47 10° ENE night (unlit)
01 Feb - 04:41:33 10° WNW 04:45:56 39° N 04:50:22 10° ENE visible
01 Feb - 06:23:55 10° WNW 06:28:36 67° NNE 06:33:20 10° ESE visible
01 Feb - 08:06:20 10° WNW 08:10:34 34° SW 08:14:51 10° SSE daylight
02 Feb - 00:01:17 10° S 00:04:41 20° SE 00:08:05 10° E night (unlit)
02 Feb - 01:41:44 10° WSW 01:46:21 88° SSE 01:51:02 10° ENE night (unlit)
02 Feb - 03:24:26 10° W 03:28:51 42° N 03:33:18 10° ENE visible
02 Feb - 05:07:09 10° WNW 05:11:39 45° NNE 05:16:11 10° E visible
02 Feb - 06:49:21 10° WNW 06:54:03 72° SSW 06:58:46 10° SE visible
02 Feb - 08:32:44 10° W 08:35:37 16° SW 08:38:30 10° S daylight
03 Feb - 00:25:25 10° SSW 00:29:46 42° SE 00:34:09 10° ENE night (unlit)
03 Feb - 02:07:17 10° W 02:11:51 57° NNW 02:16:28 10° ENE night (unlit)
03 Feb - 03:50:13 10° WNW 03:54:35 39° N 03:58:59 10° ENE visible
03 Feb - 05:32:37 10° WNW 05:37:16 63° NNE 05:41:58 10° ESE visible
03 Feb - 07:14:58 10° WNW 07:19:17 37° SW 07:23:38 10° SSE visible
03 Feb - 23:10:16 10° S 23:13:25 18° SE 23:16:36 10° E night (unlit)
04 Feb - 00:50:26 10° WSW 00:55:02 82° SSE 00:59:42 10° ENE night (unlit)
04 Feb - 02:33:05 10° W 02:37:29 42° N 02:41:58 10° ENE night (unlit)
04 Feb - 04:15:50 10° WNW 04:20:18 43° N 04:24:48 10° E visible
04 Feb - 05:58:02 10° WNW 06:02:44 78° SSW 06:07:27 10° SE visible
04 Feb - 07:41:12 10° W 07:44:21 18° SW 07:47:30 10° S daylight
04 Feb - 23:34:13 10° SSW 23:38:29 38° SE 23:42:47 10° ENE night (unlit)
05 Feb - 01:15:56 10° WSW 01:20:31 61° NNW 01:25:08 10° ENE night (unlit)
05 Feb - 02:58:52 10° WNW 03:03:13 38° N 03:07:36 10° ENE night (unlit)
05 Feb - 04:41:18 10° WNW 04:45:56 60° NNE 04:50:35 10° E visible
05 Feb - 06:23:37 10° WNW 06:28:00 40° SW 06:32:25 10° SSE visible
05 Feb - 22:19:16 10° S 22:22:10 17° SE 22:25:04 10° E night (unlit)
05 Feb - 23:59:08 10° SW 00:03:44 76° SSE 00:08:22 10° ENE night (unlit)
06 Feb - 01:41:43 10° W 01:46:08 44° N 01:50:36 10° ENE night (unlit)
06 Feb - 03:24:30 10° WNW 03:28:56 42° N 03:33:24 10° E visible
06 Feb - 05:06:43 10° WNW 05:11:25 84° SSW 05:16:08 10° ESE visible
06 Feb - 06:49:43 10° W 06:53:05 20° SW 06:56:27 10° S visible
06 Feb - 22:43:01 10° SSW 22:47:12 35° SE 22:51:24 10° ENE night (unlit)
07 Feb - 00:24:36 10° WSW 00:29:10 64° NNW 00:33:48 10° ENE night (unlit)
07 Feb - 02:07:30 10° WNW 02:11:51 38° N 02:16:14 10° ENE night (unlit)
07 Feb - 03:49:59 10° WNW 03:54:35 57° NNE 03:59:12 10° E visible
07 Feb - 05:32:15 10° WNW 05:36:42 44° SW 05:41:10 10° SE visible
07 Feb - 21:28:20 10° SSE 21:30:55 15° SE 21:33:30 10° E night (unlit)
07 Feb - 23:07:51 10° SW 23:12:25 70° SSE 23:17:02 10° ENE night (unlit)
